Location: Newark
(44.3681°N, 100.3364°W)
Time: 13:10:32
(UTC+00:00)

Explorer 7 - Pass Details

Date: 20 February 2020
Orbit: 485 x 679 km, 50.3° (Epoch: 29 March)

Event Time Altitude Azimuth Distance (km) Brightness Sun altitude
Rises 00:20:22 0° 296° (WNW) 2,761 11.3 -1.7°
Reaches altitude 10° 00:22:43 10° 300° (WNW) 1,829 10.3 -2.1°
Maximum altitude 00:26:49 62° 22° (NNE) 599 6.9 -2.8°
Drops below altitude 10° 00:30:41 10° 104° (ESE) 1,722 8.8 -3.5°
Enters shadow 00:32:31 - 107° (ESE) 2,456 9.6 -3.8°
Sets 00:32:50 0° 107° (ESE) 2,583 - -3.9°
